STARLINK-32571, 62055

Orbit data source: Space-Track

STARLINK-32571, 62055 is a payload satellite owned by SpaceX/Seattle (US) in LEO that was launched on Thu, 21 Nov 2024 UTC via an FALCON 9 launch vehicle from the Air Force Eastern Test Range (AFETR). Payload-class satellites include a variety of spacecraft equipped with specific instruments for various scientific and technological missions. These include communications satellites like Starlink; space stations such as the ISS; scientific satellites like the Hubble; Earth observation satellites from companies like Planet Labs, Umbra, and HawkEye 360; GPS; miniature CubeSats for education and research; and military/defense satellites.

Loading next visibility...
Identifier
62055, 2024-216Z
Orbit
LEO
Last TLE update
9 hours ago
Origin
Manufacturer
SpaceX/Seattle
Mission
Operational Commercial Communications
Bus & Motor
STARLINK V2M, Unknown motor
Mass
730 kg wet, ~700 kg dry
Launch date (UTC)
2024-11-21 (7 months ago)
Launch vehicle
FALCON 9
Launch site
Air Force Eastern Test Range (AFETR)
Object type
Payload
Rocket body
Debris
Shape & HBR
Box + 2 Pan, 29 m
Radar Cross Section
36.964 m², Large (>1 m²)

Expand to show TLE details & history

TLE from 9 hours ago
0 STARLINK-32571
1 62055U 24216Z   25182.84082014 -.00020294  00000-0 -48142-3 0  9999
2 62055  42.9995 232.8075 0001701  30.3685 329.7270 15.40601032 35616
Epoch: 2025-07-01T20:10Z
TLE epoch observation values (Epoch: 2025-07-01T20:10:46.86Z)
Latitude
0.00001°
Longitude
9.98177°
Altitude
443.106 km
Speed
7.649 km/s
True Right ascension
15h 31m 13s
True Declination
0° 00' 00"
Sunlit
Object was in full shadow at epoch
Visualization orbit readout
Latitude
-43.15465°
Longitude
-83.08481°
Altitude
458.358 km
Speed
7.638 km/s
Apparent Right ascension
07h 05m 25s
Apparent Declination
-46° 41' 08"
Sunlit
Object is in daylight
Visualization observer readout
Local Sidereal Time
16:48:55
Azimuth
243.287° WSW
Elevation
-64.479°
Doppler factor
1
Orbital elements
Apogee altitude
447.451 km
Perigee altitude
445.13 km
Semi-major axis
6,824.428 km
Eccentricity
0.00017
Inclination
42.9995°
RAAN
232.8075°
Arg. of periapsis
30.3685°
True anomaly
Unknown
Mean anomaly
329.727°
Eccentric anomaly
Unknown
Mean motion
3.84985 °/min
Orbital period
93.51 mins
BSTAR
-0.00048142
Loading maneuver chart data...
Loading SW <> Apogee altitude chart data...
Loading historical data...
Loading historical data...
Loading historical data...
Loading historical data...
Loading historical data...
Loading historical data...
Loading historical data...

STARLINK-32571 Visibility forecast

Observer location: undefined°, undefined°

Span
Click to sort rows by Start time (UTC) header in descending order
Start Az.
Max El. time (UTC)
Max El. Az.
Max El.
End time (UTC)
End Az.
4 mins2025-07-02 07:19:24.187Z225.781° WSW2025-07-02 07:21:24.187Z118.068° SE38.902°2025-07-02 07:23:24.187Z79.558° E
5 mins2025-07-02 08:57:24.187Z286.754° WNW2025-07-02 08:59:24.187Z15.767° NNE37.758°2025-07-02 09:02:24.187Z71.264° E
5 mins2025-07-02 10:35:24.187Z296.079° NW2025-07-02 10:37:24.187Z8.56° NNE41.16°2025-07-02 10:40:24.187Z91.182° ESE
5 mins2025-07-02 12:13:24.187Z269.256° W2025-07-02 12:15:24.187Z210.216° SW33.405°2025-07-02 12:18:24.187Z138.46° SSE
|